Regional Weather Roundup
Issued by NWS Cleveland, OH

Home | Current Version | Previous Version | Graphics & Text | Print | Product List | Glossary On
Versions: 1 2 3 4 5 6 7 8 9 10 11 12 13 14 15 16 17 18 19 20 21 22 23 24 25 26 27 28 29 30 31 32 33 34 35 36 37 38 39 40 41 42 43 44 45 46 47 48 49 50
000
ASUS41 KCLE 190702
RWRCLE
OHIO REGIONAL WEATHER ROUNDUP
NATIONAL WEATHER SERVICE CLEVELAND, OH
200 AM EST MON FEB 19 2018

NOTE: "FAIR" INDICATES FEW OR NO CLOUDS BELOW 12,000 FEET WITH NO
SIGNIFICANT WEATHER AND/OR OBSTRUCTIONS TO VISIBILITY.

OHZ001>008-015>018-024>027-034-035-043-044-190800-
   NORTHWEST OHIO

CITY           SKY/WX    TMP DP  RH WIND       PRES   REMARKS
DEFIANCE       FAIR      34  29  82 SE5       30.01F WCI  30
FINDLAY        FAIR      37  29  72 SE15      30.02F
TOLEDO EXPRESS FAIR      33  30  88 SE5       30.02F WCI  29
TOLEDO EXEC    FAIR      32  27  81 SE8       30.05F WCI  25
LIMA           FAIR      37  31  78 S16       30.02F
$$

OHZ009>014-019>023-028>033-038-089-190800-
   NORTHEAST OHIO

CITY           SKY/WX    TMP DP  RH WIND       PRES   REMARKS
CLE-HOPKINS    MOCLDY    35  28  75 S12       30.13F WCI  27
CLE-LAKEFRONT  FAIR      36  26  67 SE16      30.09F
CUY CO. ARPT   NOT AVBL
LORAIN-ELYRIA  FAIR      34  24  67 S9        30.10F WCI  27
ASHTABULA      FAIR      35  27  72 S13G21    30.13F WCI  26
AKRON-CANTON   FAIR      35  26  69 S13       30.12S WCI  26
WOOSTER        FAIR      30  26  85 SE6       30.11F WCI  24
MANSFIELD      FAIR      37  28  70 S15       30.07F
YOUNGSTOWN     CLOUDY    35  26  69 SE12      30.14S WCI  27
$$

OHZ042-051>053-060>062-070>072-077>081-190800-
  SOUTHWEST OHIO

CITY           SKY/WX    TMP DP  RH WIND       PRES   REMARKS
CINC-COVINGTON MOCLDY    41  35  79 S10       30.06F
CINC-LUNKEN    FAIR      41  34  76 S8        30.09F
HAMILTON       FAIR      41  33  73 CALM      30.08F
DAYTON         MOCLDY    36  32  85 SE9       30.05F
WRIGHT-PAT AFB FAIR      37  32  80 SE5       30.06F
DAYTON GENERAL FAIR      41  31  67 SE9       30.04F
WILMINGTON     FAIR      41  33  73 S8        30.07F
$$

OHZ036-037-039>041-045>050-054>059-063>069-073>076-082>088-190800-
  CENTRAL AND SOUTHEAST OHIO

CITY           SKY/WX    TMP DP  RH WIND       PRES   REMARKS
COLUMBUS       MOCLDY    37  30  75 SE7       30.11F
OSU AIRPORT    FAIR      35  30  82 SE7       30.09F WCI  29
BOLTON FIELD   FAIR      35  30  83 SE6       30.10F WCI  30
RICKENBACK AFB FAIR      35  30  82 E3        30.11S
NEWARK         FAIR      34  28  79 CALM      30.12F
MARION         FAIR      36  28  73 S14       30.07F
LANCASTER      FAIR      37  29  72 SE9       30.12F
ZANESVILLE     FAIR      36  28  73 SE7       30.13F
NEW PHILLY     NOT AVBL
$$




USA.gov is the U.S. government's official web portal to all federal, state and local government web resources and services.